Location: Madingley
(52.2167°N, 0.0500°E)
Time: 08:35:43
(UTC+00:00)

ATLAS 2AS CENTAUR R/B - Pass Details

Date: 15 May 2026
Orbit: 1053 x 1158 km, 63.7° (Epoch: 5 June)

Event Time Altitude Azimuth Distance (km) Brightness Sun altitude
Rises 20:48:39 0° 267° (W) 3,878 6.3 -7.9°
Reaches altitude 10° 20:51:34 10° 276° (W) 2,910 5.8 -8.3°
Maximum altitude 20:57:51 37° 342° (NNW) 1,601 4.3 -8.9°
Drops below altitude 10° 21:04:06 10° 49° (NE) 2,879 5.0 -9.5°
Sets 21:06:58 0° 58° (ENE) 3,833 5.5 -9.8°
